Tracking 28895 objects as of 28-May-2024
HD Live streaming from Space Station
objects crossing your sky now

STARLINK-6079

Track STARLINK-6079 now!
10-day predictions
STARLINK-6079 is classified as:


NORAD ID: 56120
Int'l Code: 2023-046AD
Perigee: 565.4 km
Apogee: 567.1 km
Inclination: 43.0 °
Period: 95.8 minutes
Semi major axis: 6937 km
RCS: Unknown
Launch date: March 29, 2023
Source: United States (US)
Launch site: AIR FORCE EASTERN TEST RANGE (AFETR)
Your satellite tracking list
Your tracking list is empty




NASA's NSSDC Master Catalog

Two Line Element Set (TLE):
1 56120U 23046AD  24148.85235575  .00002320  00000-0  18680-3 0  9991
2 56120  43.0033  82.9135 0001254 278.4702  81.5998 15.02533486 64309
Source of the keplerian elements: AFSPC